• In Hungary
  • List of Countries
  • For 7 days
  • Water Temperature
  • Satellite Maps
  • Weather Map
  • News
  • Weather Widgets
  • user-avatar
    Login

    Hourly Weather Byrdowo

    Today, 12 November, Monday

    Time Temperature Precipitation Wind Pressure Humidity
    00:00 +7°C° 0 mm 2 mps 726 mmHg 86%
    01:00 +7°C° 0 mm 1 mps 726 mmHg 89%
    02:00 +8°C° 0 mm 1 mps 726 mmHg 88%
    03:00 +8°C° 0 mm 1 mps 726 mmHg 87%
    04:00 +7°C° 0 mm 2 mps 726 mmHg 87%
    05:00 +7°C° 0 mm 2 mps 727 mmHg 87%
    06:00 +8°C° 0 mm 1 mps 727 mmHg 87%
    07:00 +7°C° 0 mm 1 mps 727 mmHg 87%
    08:00 +9°C° 0 mm 1 mps 727 mmHg 80%
    09:00 +11°C° 0 mm 1 mps 728 mmHg 73%
    10:00 +13°C° 0 mm 2 mps 728 mmHg 66%
    11:00 +14°C° 0 mm 2 mps 728 mmHg 64%
    12:00 +16°C° 0 mm 2 mps 728 mmHg 61%
    13:00 +17°C° 0 mm 2 mps 728 mmHg 58%
    14:00 +15°C° 0 mm 2 mps 728 mmHg 65%
    15:00 +14°C° 0 mm 1 mps 728 mmHg 71%
    16:00 +13°C° 0 mm 1 mps 727 mmHg 77%
    17:00 +12°C° 0 mm 1 mps 727 mmHg 80%
    18:00 +12°C° 0 mm 1 mps 728 mmHg 83%
    19:00 +10°C° 0 mm 2 mps 728 mmHg 85%
    20:00 +10°C° 0 mm 2 mps 728 mmHg 86%
    21:00 +9°C° 0 mm 2 mps 728 mmHg 86%
    22:00 +9°C° 0 mm 2 mps 728 mmHg 86%
    23:00 +9°C° 0 mm 2 mps 728 mmHg 86%

    Tomorrow, 13 November, Tuesday

    Time Temperature Precipitation Wind Pressure Humidity
    00:00 +9°C° 0 mm 2 mps 728 mmHg 85%
    01:00 +8°C° 0 mm 2 mps 728 mmHg 85%
    02:00 +8°C° 0 mm 2 mps 728 mmHg 85%
    03:00 +8°C° 0 mm 2 mps 728 mmHg 85%
    04:00 +8°C° 0 mm 2 mps 728 mmHg 84%
    05:00 +8°C° 0 mm 2 mps 728 mmHg 84%
    06:00 +8°C° 0 mm 2 mps 728 mmHg 83%
    07:00 +8°C° 0 mm 2 mps 728 mmHg 83%
    08:00 +9°C° 0 mm 2 mps 728 mmHg 76%
    09:00 +12°C° 0 mm 2 mps 728 mmHg 69%
    10:00 +14°C° 0 mm 1 mps 728 mmHg 62%
    11:00 +14°C° 0 mm 2 mps 728 mmHg 59%
    12:00 +15°C° 0 mm 2 mps 728 mmHg 56%
    13:00 +16°C° 0 mm 2 mps 728 mmHg 53%
    14:00 +15°C° 0 mm 2 mps 727 mmHg 58%
    15:00 +13°C° 0 mm 3 mps 727 mmHg 64%
    16:00 +12°C° 0 mm 3 mps 727 mmHg 70%
    17:00 +11°C° 0 mm 3 mps 728 mmHg 72%
    18:00 +10°C° 0 mm 3 mps 728 mmHg 75%
    19:00 +10°C° 0 mm 3 mps 728 mmHg 78%
    20:00 +10°C° 0.3 mm 3 mps 729 mmHg 81%
    21:00 +10°C° 0.3 mm 3 mps 729 mmHg 83%
    22:00 +10°C° 0.3 mm 3 mps 729 mmHg 86%
    23:00 +9°C° 0.1 mm 3 mps 729 mmHg 86%

    Day after tomorrow, 14 November, Wednesday

    Time Temperature Precipitation Wind Pressure Humidity
    00:00 +8°C° 0.1 mm 3 mps 730 mmHg 86%
    01:00 +8°C° 0.1 mm 3 mps 730 mmHg 86%
    02:00 +7°C° 0 mm 3 mps 730 mmHg 87%
    03:00 +7°C° 0 mm 2 mps 730 mmHg 88%
    04:00 +6°C° 0 mm 2 mps 730 mmHg 89%
    05:00 +6°C° 0 mm 2 mps 730 mmHg 89%
    06:00 +6°C° 0 mm 2 mps 730 mmHg 90%
    07:00 +5°C° 0 mm 2 mps 730 mmHg 91%
    08:00 +6°C° 0 mm 2 mps 730 mmHg 87%
    09:00 +7°C° 0 mm 3 mps 731 mmHg 83%
    10:00 +7°C° 0 mm 3 mps 731 mmHg 79%
    11:00 +7°C° 0 mm 3 mps 731 mmHg 79%
    12:00 +7°C° 0 mm 3 mps 731 mmHg 78%
    13:00 +7°C° 0 mm 3 mps 731 mmHg 77%
    14:00 +7°C° 0 mm 3 mps 731 mmHg 79%
    15:00 +7°C° 0 mm 2 mps 731 mmHg 81%
    16:00 +7°C° 0 mm 2 mps 731 mmHg 82%
    17:00 +7°C° 0.1 mm 2 mps 731 mmHg 84%
    18:00 +6°C° 0.1 mm 2 mps 731 mmHg 85%
    19:00 +6°C° 0.1 mm 2 mps 731 mmHg 87%
    20:00 +6°C° 0 mm 2 mps 731 mmHg 87%
    21:00 +6°C° 0 mm 2 mps 732 mmHg 88%
    22:00 +7°C° 0 mm 1 mps 732 mmHg 88%
    23:00 +6°C° 0 mm 1 mps 732 mmHg 89%

    15 November, Thursday

    Time Temperature Precipitation Wind Pressure Humidity
    00:00 +6°C° 0 mm 1 mps 732 mmHg 90%
    01:00 +6°C° 0 mm 1 mps 732 mmHg 91%
    02:00 +5°C° 0 mm 1 mps 732 mmHg 92%
    03:00 +5°C° 0 mm 1 mps 732 mmHg 92%
    04:00 +5°C° 0 mm 1 mps 732 mmHg 93%
    05:00 +5°C° 0 mm 1 mps 732 mmHg 93%
    06:00 +5°C° 0 mm 1 mps 732 mmHg 94%
    07:00 +5°C° 0 mm 1 mps 732 mmHg 94%
    08:00 +5°C° 0 mm 1 mps 732 mmHg 90%
    09:00 +6°C° 0 mm 1 mps 733 mmHg 86%
    10:00 +7°C° 0 mm 1 mps 733 mmHg 82%
    11:00 +7°C° 0 mm 1 mps 733 mmHg 80%
    12:00 +8°C° 0 mm 1 mps 733 mmHg 78%
    13:00 +8°C° 0 mm 1 mps 733 mmHg 75%
    14:00 +7°C° 0 mm 2 mps 733 mmHg 77%
    15:00 +6°C° 0 mm 2 mps 733 mmHg 79%
    16:00 +6°C° 0 mm 2 mps 733 mmHg 81%
    17:00 +5°C° 0 mm 2 mps 733 mmHg 83%
    18:00 +5°C° 0 mm 2 mps 733 mmHg 84%
    19:00 +5°C° 0 mm 2 mps 733 mmHg 85%
    20:00 +5°C° 0 mm 2 mps 733 mmHg 85%
    21:00 +4°C° 0 mm 2 mps 733 mmHg 86%
    22:00 +4°C° 0 mm 2 mps 733 mmHg 86%
    23:00 +4°C° 0 mm 2 mps 733 mmHg 88%

    16 November, Friday

    Time Temperature Precipitation Wind Pressure Humidity
    00:00 +4°C° 0 mm 2 mps 733 mmHg 90%
    01:00 +3°C° 0 mm 2 mps 733 mmHg 92%
    02:00 +3°C° 0 mm 2 mps 733 mmHg 92%
    03:00 +3°C° 0 mm 2 mps 733 mmHg 93%
    04:00 +3°C° 0 mm 2 mps 733 mmHg 94%
    05:00 +3°C° 0 mm 2 mps 734 mmHg 94%
    06:00 +3°C° 0 mm 2 mps 734 mmHg 94%
    07:00 +3°C° 0 mm 2 mps 734 mmHg 94%
    08:00 +3°C° 0 mm 2 mps 734 mmHg 88%
    09:00 +3°C° 0 mm 3 mps 734 mmHg 82%
    10:00 +4°C° 0 mm 3 mps 735 mmHg 77%
    11:00 +5°C° 0 mm 3 mps 735 mmHg 74%
    12:00 +5°C° 0 mm 3 mps 735 mmHg 71%
    13:00 +7°C° 0 mm 3 mps 735 mmHg 68%
    14:00 +5°C° 0 mm 3 mps 734 mmHg 72%
    15:00 +5°C° 0 mm 2 mps 734 mmHg 77%
    16:00 +4°C° 0 mm 2 mps 734 mmHg 82%
    17:00 +3°C° 0 mm 2 mps 734 mmHg 83%
    18:00 +3°C° 0 mm 2 mps 734 mmHg 85%
    19:00 +1°C° 0 mm 3 mps 734 mmHg 87%
    20:00 +2°C° 0 mm 2 mps 734 mmHg 86%
    21:00 +1°C° 0 mm 2 mps 735 mmHg 85%
    22:00 +1°C° 0 mm 2 mps 735 mmHg 85%
    23:00 +1°C° 0 mm 2 mps 735 mmHg 84%

    17 November, Saturday

    Time Temperature Precipitation Wind Pressure Humidity
    00:00 +1°C° 0 mm 2 mps 735 mmHg 82%
    01:00 -1°C° 0 mm 2 mps 735 mmHg 81%
    02:00 -1°C° 0 mm 2 mps 734 mmHg 80%
    03:00 -1°C° 0 mm 2 mps 734 mmHg 78%
    04:00 -2°C° 0 mm 2 mps 734 mmHg 77%
    05:00 -2°C° 0 mm 2 mps 734 mmHg 75%
    06:00 -2°C° 0 mm 2 mps 734 mmHg 74%
    07:00 -2°C° 0 mm 3 mps 734 mmHg 73%
    08:00 -1°C° 0 mm 3 mps 734 mmHg 64%
    09:00 0°C° 0 mm 3 mps 734 mmHg 56%
    10:00 +2°C° 0 mm 3 mps 735 mmHg 48%
    11:00 +3°C° 0 mm 3 mps 734 mmHg 45%
    12:00 +4°C° 0 mm 3 mps 734 mmHg 42%
    13:00 +5°C° 0 mm 3 mps 734 mmHg 39%
    14:00 +3°C° 0 mm 3 mps 734 mmHg 45%
    15:00 +2°C° 0 mm 3 mps 734 mmHg 50%
    16:00 0°C° 0 mm 3 mps 733 mmHg 56%
    17:00 +1°C° 0 mm 2 mps 733 mmHg 58%
    18:00 -1°C° 0 mm 2 mps 733 mmHg 60%
    19:00 -1°C° 0 mm 2 mps 733 mmHg 63%
    20:00 -2°C° 0 mm 2 mps 733 mmHg 63%
    21:00 -2°C° 0 mm 2 mps 733 mmHg 63%
    22:00 -2°C° 0 mm 2 mps 733 mmHg 63%
    23:00 -2°C° 0 mm 2 mps 733 mmHg 63%
    Show more